Résultats de la compétition "Régionale des Jeunes" du 19-09-2010 organisée par le club 5907
     
  Télécharger le fichier CSV.  
     
     

 Circuit "A"

Licence Nom Prénom Temps CN
précédent
Score sur
la course
Différence
747TINCHANTJohann0:56:4272027042-160
8823LEGUENOlivier1:05:2653296102+773
10869DENIERSimon1:12:0157675544-223
11524CAROULLEYannick1:16:5341145193+1079
18874ROBARTSébastien1:19:3746185015+397
9629SMIRNOVKonstantin1:20:4965104940-1570
12468RADONDYDaniel1:22:4256224828-794
4808DASILVAFernando1:24:4540754711+636
11077MAUCONDUITArnaud1:27:2945394564+25
16399GENCEEric1:30:1642574423+166
14956LEROYMaxime1:37:4541504085-65
22219THOMASJulien1:42:4636653885+220
20741MAMETLudovic1:42:5637763879+103
18786SCHIMPFLaurent1:44:3742493816-433
16281BIZOTLaurent1:44:5840733804-269
20550REGNIEZErwan1:46:1339043759-145
18448RICQUEBOURGAxel1:52:5629633535+572
22302PRUVOSTStephane2:02:02N/A3272N/A
20676DELINSELLEAlexis2:04:0631963217+21
15796CHARLETEtienne2:17:1629762909-67
18300GOURLAINVincent2:25:2638622745-1117
18662NEUVILLEChristian2:27:2341872709-1478
6999MAHIEUPierreN/A59860-5986
5796MENGINBastienN/A71990-7199
17630CATAlainN/A34710-3471
8081LEGEREPascalN/A50820-5082
16397CLAIRETRichardN/A46930-4693
14665SZYMANOWSKIValentinN/A52820-5282
19699GOBERTAlainN/A41610-4161
19473WAMBREFranckN/AN/A0N/A
15245BARTOSThomasN/A47200-4720
18355BRUNOOlivierN/A46150-4615

  Indice de confiance du circuit (moyenne des différences entre CN et score sur la course des 3 à 10 premiers) : 416




 Circuit "B"

Licence Nom Prénom Temps CN
précédent
Score sur
la course
Différence
7049LEROYSimon0:55:0367676128-639
2822DICKBURTMichel1:02:5057725369-403
1947POULAINJoel1:04:1358235254-569
9171POULAINYannick1:05:0141895189+1000
18006SANTANDREUMickael1:05:4647105130+420
16143WANTIERLoic1:07:3044014998+597
15895LACHAUMEPatrick1:08:4144544912+458
7200SZYMANOWSKIFabrice1:14:0049784559-419
20195DESOOMERJean-jacques1:17:4137394343+604
23473TASSARTRomain1:23:44N/A4029N/A
13756FLANDRINGautier1:27:3947413849-892
13838BOUTINDominique1:28:3435663809+243
14228BISQUERTChristophe1:30:5527863711+925
13270ROUXCatherine1:32:3137403647-93
13271CZERNIAKJerome1:34:5238393556-283
20629KIRILOVAurélie1:39:1930023397+395
8947BOULANGERPatrick1:41:2844513325-1126
22347PAILLEUXSteven1:45:0403211N/A
9427LERICHEClotilde1:46:0344123181-1231
20952LOUCHARTVictor1:49:1126433090+447
22373DELCUSESébastien1:49:1620763088+1012
17572TESSIERPatrick1:50:0938723063-809
20840DUBUISSONRony1:53:0733192982-337
19422DAMMANLaurent2:00:3602797N/A
23079MERCIERAgnès2:06:03N/A2676N/A
20149RUDKIEWICZChristophe2:10:0027352595-140
18298DUPONTLaurent2:20:0520092408+399
8180L'HUILLIERPhilippe2:22:4039662365-1601
17979DOUGUETDavidN/A30170-3017
20177WATRELOTJulienN/A38730-3873
23637RIGAULTChristopheN/AN/A0N/A
13278TAELEMANSPhilippeN/A53100-5310
20040GOUVERNEURAntoineN/A54450-5445
20722MOREAU-DESCOINGSFrançoisN/A29170-2917
17576JOLYPhilippeN/A63090-6309
5421LOTERIEJ-FrancoisN/A53780-5378
10079PAPINPhilippeN/A39670-3967
23571BELLENGIERChristopheN/AN/A0N/A

  Indice de confiance du circuit (moyenne des différences entre CN et score sur la course des 3 à 10 premiers) : 319




 Circuit "C"

Licence Nom Prénom Temps CN
précédent
Score sur
la course
Différence
2892MOULIERECamille0:50:3846464644-2
18789BAERTEtienne0:58:3634374013+576
5597EJSMONTJean0:59:4446663936-730
6995DECARPIGNYGwladys1:01:0643043848-456
9523WULLUSJ-Noel1:07:5536313462-169
22717BAILLIEULMartin1:08:05N/A3454N/A
13031DELVALGilles1:08:0825613451+890
7044LOTERIEMurielle1:09:5938163360-456
7216LEROYOdile1:10:4527193324+605
17577FACHAUXAngélique1:14:1940283164-864
20439GOLECZoé1:14:5430003139+139
20029GOBERTAlexandre1:15:4925183101+583
9164TORZDidier1:19:4336092950-659
18542RUDKIEWICZMartin1:19:4831352947-188
10639BOULANGERIsabelle1:20:3133352920-415
17899DEPERSINIsabelle1:21:4929352874-61
1948POULAINOdile1:22:0828522863+11
20684STRATMAINSLudovic1:26:1115052728+1223
18299GOURLAINMathilde1:26:2228742723-151
20425PECQUEURSylvie1:31:3122862569+283
19155GOURLAINMarguerite-marie1:32:0424102554+144
23014VELUAntoine1:36:11N/A2445N/A
21418ASTOLFIJudith1:37:5528712401-470
23597VANDENDRIESSCHESébastien1:39:55N/A2353N/A
9172POULAINGael1:40:1329972346-651
21323VANOVERBERGHECamille1:45:3126312228-403
22418PASSEPONTAudrey1:59:2501969N/A
20215SIXPauline2:00:0228161959-857
13035PENANGUERCatherine2:00:1619861955-31
17201LAMINETTEM-Odile2:21:1118081665-143
22511HENEMANMaxenceN/A00N/A
19136TANTARTDelphineN/A40440-4044
23596GERBEAUXJean-paulN/AN/A0N/A
16233DEPRETThomasN/A50700-5070

  Indice de confiance du circuit (moyenne des différences entre CN et score sur la course des 3 à 10 premiers) : 264




 Circuit "D"

Licence Nom Prénom Temps CN
précédent
Score sur
la course
Différence
16398GRIMBERTHerve0:35:3138453674-171
22962FONTAINEHelise0:42:58N/A3037N/A
22433MALAKNathan0:43:0217523033+1281
22512GRESSIERTheo0:52:1017452502+757
22250PARENTMathilde0:58:1813342238+904
22370RADONDYThéo1:00:3321252155+30
22251FAVIERMaxence1:06:2714001964+564
13635JUDASSylvaine1:06:44N/A1956N/A
22860MASSINMargot1:08:46N/A1898N/A
22157BULLIERRomain1:24:2523951546-849
15894LUDEWIG-JAMESCarol1:25:4321281522-606
15885GALETClement1:29:1521001462-638
22447LALOUXClément1:31:4512931422+129
22237VANOVERBERGHENathalie1:32:5916871403-284
14164EJSMONTMartine1:35:3318311366-465
23427BULLIERAlisson1:40:47N/A1295N/A
22236VANOVERBERGHEPhilippe1:43:28N/A1261N/A
23540DAMIENSAudrey1:45:05N/A1242N/A
22417GERBEAUXMarie-jeanne1:47:4301212N/A
22549LECUYERManon1:49:2101193N/A
10081TORZ-DRUONMagali2:03:0729031060-1843
22931GOZEAnne2:07:16N/A1025N/A
22803CLAVELNathalie2:08:23N/A1016N/A
22159SENDRONKathleenN/A18400-1840
19759GOURLAINClémentN/A8080-808
971PONCEBernardN/AN/A0N/A
22925GROSSIKurtysN/AN/A0N/A
20572GUILMAINMelanieN/A30310-3031
23458SENDRONAthènaïsN/AN/A0N/A

  Indice de confiance du circuit (moyenne des différences entre CN et score sur la course des 3 à 10 premiers) : 506




 Circuit "E"

Licence Nom Prénom Temps CN
précédent
Score sur
la course
Différence
22238VANOVERBERGHEMathilde1:04:247961996+1200
23559LENOBLELou1:07:15N/A1912N/A
16102BAILLYBertrand1:10:3122671823-444
23595DELCUSEJulie1:11:14N/A1805N/A
21329MAZYPierre-louis1:14:5918221715-107
20152RUDKIEWICZLucie1:18:2015401641+101
23210HARDYThéo1:24:17N/A1525N/A
20150RUDKIEWICZAnne2:07:548531005+152
20154RUDKIEWICZVéronique2:08:411161999-162
20151RUDKIEWICZJuliette2:15:561005946-59
23539PONCHELValentinN/AN/A0N/A

  Indice de confiance du circuit (moyenne des différences entre CN et score sur la course des 3 à 10 premiers) : 465






 Retour